,,PA_Meas_PMT16A,,PR_Meas_QMR101_102,,RH_Meas_QMH101,,SR_Meas_QMS101,,TA_Meas_QMH101,,GenWind,,GenWind,
time,status,PA,status,PR,status,RH,status,SR,status,TA,status,DirAvg,status,SpdAvg,
2016-04-30, 07:21:04,VALID,916.821,VALID,0,INVALID,111.264,VALID,109.268,VALID,20.2489,VALID,157,VALID,0,
2016-04-30, 07:22:04,VALID,916.857,VALID,0,INVALID,111.325,VALID,113.028,VALID,20.2489,VALID,156,VALID,1.13164,
2016-04-30, 07:23:04,VALID,916.9,VALID,0,INVALID,111.355,VALID,110.02,VALID,20.2293,VALID,152,VALID,0.925,
2016-04-30, 07:24:04,VALID,916.926,VALID,0,INVALID,111.378,VALID,105.615,VALID,20.2489,VALID,158,VALID,1.1957,
2016-04-30, 07:26:04,VALID,916.948,VALID,0,INVALID,111.378,VALID,117.218,VALID,20.2684,VALID,143,VALID,1.29727,
2016-04-30, 07:27:04,VALID,916.978,VALID,0,INVALID,111.378,VALID,115.177,VALID,20.3074,VALID,140,VALID,0.944922,
2016-04-30, 07:28:04,VALID,916.995,VALID,0,INVALID,111.401,VALID,123.88,VALID,20.3464,VALID,133,VALID,0.408984,
2016-04-30, 07:29:04,VALID,917.029,VALID,0,INVALID,111.34,VALID,102.499,VALID,20.4049,VALID,142,VALID,0,
2016-04-30, 07:30:04,VALID,917.057,VALID,0,INVALID,111.431,VALID,102.069,VALID,20.4244,VALID,146,VALID,1.23477,
2016-04-30, 07:31:04,VALID,917.051,VALID,0,INVALID,111.599,VALID,98.8459,VALID,20.4049,VALID,147,VALID,1.31953,
2016-04-30, 07:32:04,VALID,917.044,VALID,0,INVALID,111.584,VALID,100.995,VALID,20.4439,VALID,173,VALID,0.0289063,
2016-04-30, 07:33:04,VALID,917.081,VALID,0,INVALID,111.576,VALID,97.664,VALID,20.504,VALID,153,VALID,0,
2016-04-30, 07:47:04,VALID,917.139,VALID,0,INVALID,111.98,VALID,135.591,VALID,20.9511,VALID,122,VALID,0,
2016-04-30, 07:48:04,VALID,917.174,VALID,0,INVALID,112.011,VALID,221.759,VALID,21.0291,VALID,108,VALID,0,
2016-04-30, 07:49:04,VALID,917.203,VALID,0,INVALID,112.011,VALID,237.552,VALID,21.1852,VALID,108,VALID,0,
2016-04-30, 07:50:04,VALID,917.228,VALID,0,INVALID,112.041,VALID,188.344,VALID,21.3022,VALID,108,VALID,0,
2016-04-30, 07:51:04,VALID,917.243,VALID,0,INVALID,112.003,VALID,228.527,VALID,21.4778,VALID,108,VALID,0,
2016-04-30, 07:52:04,VALID,917.248,VALID,0,INVALID,112.095,VALID,218.428,VALID,21.5152,VALID,109,VALID,0,
2016-04-30, 07:53:04,VALID,917.281,VALID,0,INVALID,111.82,VALID,258.826,VALID,21.6729,VALID,110,VALID,0,
2016-04-30, 07:54:04,VALID,917.287,VALID,0,INVALID,111.271,VALID,261.834,VALID,21.7705,VALID,143,VALID,0,
2016-04-30, 07:55:04,VALID,917.289,VALID,0,INVALID,110.158,VALID,278.165,VALID,21.8664,VALID,144,VALID,0,
2016-04-30, 07:56:04,VALID,917.276,VALID,0,VALID,104,VALID,271.611,VALID,21.9656,VALID,144,VALID,0,
2016-04-30, 07:57:04,VALID,917.26,VALID,0,VALID,104,VALID,273.867,VALID,22.0632,VALID,133,VALID,0,
2016-04-30, 07:58:04,VALID,917.268,VALID,0,VALID,104,VALID,279.347,VALID,22.1396,VALID,133,VALID,0,
2016-04-30, 07:59:04,VALID,917.257,VALID,0,VALID,104,VALID,283.752,VALID,22.2974,VALID,132,VALID,0,
2016-04-30, 08:00:04,VALID,917.27,VALID,0,VALID,104,VALID,288.694,VALID,22.4925,VALID,132,VALID,0,
2016-04-30, 08:01:04,VALID,917.271,VALID,0,VALID,104,VALID,292.24,VALID,22.7072,VALID,132,VALID,0,
2016-04-30, 08:02:04,VALID,917.282,VALID,0,VALID,103.099,VALID,295.571,VALID,22.9024,VALID,117,VALID,0,
2016-04-30, 08:03:04,VALID,917.297,VALID,0,VALID,102.2,VALID,297.505,VALID,22.9983,VALID,84,VALID,0,
2016-04-30, 08:04:04,VALID,917.314,VALID,0,VALID,103.541,VALID,299.761,VALID,23.1739,VALID,84,VALID,0,
2016-04-30, 08:05:04,VALID,917.326,VALID,0,VALID,99.7524,VALID,302.554,VALID,23.3106,VALID,68,VALID,0,
2016-04-30, 08:06:04,VALID,917.336,VALID,0,VALID,95.4071,VALID,306.53,VALID,23.4472,VALID,49,VALID,0,
2016-04-30, 08:07:04,VALID,917.4,VALID,0,VALID,81.1818,VALID,309.323,VALID,23.5643,VALID,49,VALID,0,
2016-04-30, 08:08:04,VALID,917.42,VALID,0,VALID,88.8128,VALID,312.009,VALID,23.7205,VALID,49,VALID,0,
2016-04-30, 08:09:04,VALID,917.465,VALID,0,VALID,83.6594,VALID,314.803,VALID,23.8181,VALID,49,VALID,0,
2016-04-30, 08:10:04,VALID,917.476,VALID,0,VALID,81.906,VALID,317.489,VALID,23.9548,VALID,49,VALID,0,
2016-04-30, 08:11:04,VALID,917.478,VALID,0,VALID,79.3064,VALID,320.175,VALID,24.1696,VALID,49,VALID,0,
2016-04-30, 08:12:04,VALID,917.474,VALID,0,VALID,79.5199,VALID,323.505,VALID,24.4429,VALID,49,VALID,0,
2016-04-30, 08:13:04,VALID,917.504,VALID,0,VALID,78.9024,VALID,325.976,VALID,24.6968,VALID,49,VALID,0,
2016-04-30, 08:14:04,VALID,917.501,VALID,0,VALID,77.1261,VALID,328.662,VALID,24.9292,VALID,49,VALID,0,
2016-04-30, 08:15:04,VALID,917.501,VALID,0,VALID,76.1122,VALID,331.671,VALID,25.1245,VALID,49,VALID,0,
2016-04-30, 08:16:04,VALID,917.532,VALID,0,VALID,75.0373,VALID,333.605,VALID,25.3198,VALID,49,VALID,0,
2016-04-30, 08:17:04,VALID,917.548,VALID,0,VALID,74.0462,VALID,337.795,VALID,25.4565,VALID,49,VALID,0,
2016-04-30, 08:18:04,VALID,917.573,VALID,0,VALID,73.505,VALID,341.878,VALID,25.5737,VALID,49,VALID,0,
2016-04-30, 08:19:04,VALID,917.629,VALID,0,VALID,73.0857,VALID,344.671,VALID,25.6929,VALID,49,VALID,0,
2016-04-30, 08:20:04,VALID,917.642,VALID,0,VALID,73.0323,VALID,348.647,VALID,25.8492,VALID,49,VALID,0,
2016-04-30, 08:21:04,VALID,917.634,VALID,0,VALID,71.9269,VALID,350.58,VALID,25.9449,VALID,49,VALID,0,
2016-04-30, 08:22:04,VALID,917.633,VALID,0,VALID,73.1924,VALID,354.233,VALID,25.9273,VALID,49,VALID,0,
2016-04-30, 08:23:04,VALID,917.673,VALID,0,VALID,72.2166,VALID,358.209,VALID,25.8277,VALID,49,VALID,0,
2016-04-30, 08:24:04,VALID,917.684,VALID,0,VALID,73.8709,VALID,362.614,VALID,25.8472,VALID,45,VALID,0,
2016-04-30, 08:25:04,VALID,917.704,VALID,0,VALID,72.4911,VALID,366.159,VALID,25.9644,VALID,36,VALID,0,
2016-04-30, 08:26:04,VALID,917.685,VALID,0,VALID,70.4099,VALID,365.622,VALID,26.1011,VALID,38,VALID,0,
2016-04-30, 08:27:04,VALID,917.726,VALID,0,VALID,70.57,VALID,373.036,VALID,26.0796,VALID,38,VALID,0,
2016-04-30, 08:28:04,VALID,917.722,VALID,0,VALID,72.7808,VALID,377.548,VALID,26.1402,VALID,37,VALID,0,
2016-04-30, 08:29:04,VALID,917.729,VALID,0,VALID,74.1149,VALID,381.416,VALID,25.982,VALID,37,VALID,0,
2016-04-30, 08:30:04,VALID,917.747,VALID,0,VALID,73.8861,VALID,383.35,VALID,25.8277,VALID,42,VALID,0,
2016-04-30, 08:31:04,VALID,917.758,VALID,0,VALID,75.1288,VALID,384.639,VALID,25.6304,VALID,36,VALID,0,
2016-04-30, 08:32:04,VALID,917.783,VALID,0,VALID,76.9126,VALID,391.301,VALID,25.5737,VALID,40,VALID,0,
2016-04-30, 08:33:04,VALID,917.808,VALID,0,VALID,76.3866,VALID,401.4,VALID,25.6499,VALID,47,VALID,0,
2016-04-30, 08:34:04,VALID,917.84,VALID,0,VALID,75.388,VALID,400.218,VALID,25.7476,VALID,48,VALID,0,
2016-04-30, 08:35:04,VALID,917.787,VALID,0,VALID,75.5404,VALID,401.722,VALID,25.8433,VALID,44,VALID,0,
2016-04-30, 08:36:04,VALID,917.82,VALID,0,VALID,73.4669,VALID,404.194,VALID,25.7866,VALID,12,VALID,1.32891,
2016-04-30, 08:37:04,VALID,917.832,VALID,0,VALID,75.8301,VALID,406.02,VALID,25.4331,VALID,1,VALID,0.750391,
2016-04-30, 08:38:04,VALID,917.843,VALID,0,VALID,78.9252,VALID,405.483,VALID,25.2379,VALID,28,VALID,0,
2016-04-30, 08:39:04,VALID,917.839,VALID,0,VALID,78.1705,VALID,407.847,VALID,25.1598,VALID,20,VALID,0.0046875,
2016-04-30, 08:40:04,VALID,917.85,VALID,0,VALID,76.8974,VALID,413.541,VALID,25.0036,VALID,8,VALID,0,
2016-04-30, 08:41:04,VALID,917.843,VALID,0,VALID,80.3508,VALID,418.591,VALID,24.8883,VALID,30,VALID,0,
2016-04-30, 08:42:04,VALID,917.861,VALID,0,VALID,77.9952,VALID,421.277,VALID,24.7497,VALID,331,VALID,0,
2016-04-30, 08:43:04,VALID,917.874,VALID,0,VALID,81.441,VALID,425.682,VALID,24.6912,VALID,36,VALID,0,
2016-04-30, 08:44:04,VALID,917.905,VALID,0,VALID,79.8172,VALID,427.938,VALID,24.693,VALID,9,VALID,0.987109,
2016-04-30, 08:45:04,VALID,917.931,VALID,0,VALID,79.1006,VALID,432.558,VALID,24.5954,VALID,335,VALID,0,
2016-04-30, 08:46:04,VALID,917.968,VALID,0,VALID,79.8172,VALID,435.459,VALID,24.5954,VALID,36,VALID,0,
2016-04-30, 08:47:04,VALID,917.991,VALID,0,VALID,77.9952,VALID,437.5,VALID,24.7321,VALID,33,VALID,0,
2016-04-30, 08:48:04,VALID,917.997,VALID,0,VALID,78.5212,VALID,439.649,VALID,24.9664,VALID,14,VALID,0,
2016-04-30, 08:49:04,VALID,918.028,VALID,0,VALID,75.1288,VALID,442.12,VALID,25.0836,VALID,353,VALID,0,
2016-04-30, 08:50:04,VALID,918.049,VALID,0,VALID,74.1225,VALID,444.269,VALID,25.1226,VALID,4,VALID,0,
2016-04-30, 08:51:04,VALID,918.04,VALID,0,VALID,74.5341,VALID,448.03,VALID,25.1226,VALID,35,VALID,0,
2016-04-30, 08:52:04,VALID,918.063,VALID,0,VALID,73.7718,VALID,450.716,VALID,25.1617,VALID,327,VALID,0,
2016-04-30, 08:53:04,VALID,918.094,VALID,0,VALID,74.0157,VALID,452.864,VALID,25.1793,VALID,325,VALID,0,
2016-04-30, 08:54:04,VALID,918.073,VALID,0,VALID,76.3028,VALID,455.658,VALID,25.1812,VALID,21,VALID,0,
2016-04-30, 08:55:04,VALID,918.097,VALID,0,VALID,74.5189,VALID,458.129,VALID,25.1598,VALID,39,VALID,0,
2016-04-30, 08:56:04,VALID,918.127,VALID,0,VALID,75.4108,VALID,460.493,VALID,25.1793,VALID,320,VALID,0,
2016-04-30, 08:57:04,VALID,918.139,VALID,0,VALID,74.5036,VALID,460.6,VALID,25.0621,VALID,322,VALID,0,
2016-04-30, 08:58:04,VALID,918.15,VALID,0,VALID,73.9624,VALID,461.03,VALID,25.1226,VALID,311,VALID,0,
2016-04-30, 08:59:04,VALID,918.146,VALID,0,VALID,74.7628,VALID,465.543,VALID,25.0621,VALID,263,VALID,0,
2016-04-30, 09:00:04,VALID,918.159,VALID,0,VALID,75.8073,VALID,474.353,VALID,25.0621,VALID,266,VALID,0,
2016-04-30, 09:01:04,VALID,918.172,VALID,0,VALID,75.0678,VALID,477.898,VALID,25.1402,VALID,324,VALID,0,
2016-04-30, 09:02:04,VALID,918.197,VALID,0,VALID,74.7552,VALID,475.749,VALID,25.1188,VALID,324,VALID,0,
2016-04-30, 09:03:04,VALID,918.199,VALID,0,VALID,74.74,VALID,476.824,VALID,25.1383,VALID,298,VALID,0,
2016-04-30, 09:04:04,VALID,918.2,VALID,0,VALID,75.6777,VALID,486.494,VALID,25.0621,VALID,289,VALID,0,
2016-04-30, 09:05:04,VALID,918.186,VALID,0,VALID,75.8073,VALID,490.469,VALID,25.0621,VALID,306,VALID,0,
2016-04-30, 09:06:04,VALID,918.19,VALID,0,VALID,76.2647,VALID,491.436,VALID,25.1793,VALID,315,VALID,0,
2016-04-30, 09:07:04,VALID,918.172,VALID,0,VALID,75.0068,VALID,496.163,VALID,25.2379,VALID,289,VALID,0,
2016-04-30, 09:08:04,VALID,918.152,VALID,0,VALID,73.5431,VALID,499.924,VALID,25.1383,VALID,272,VALID,0,
2016-04-30, 09:09:04,VALID,918.135,VALID,0,VALID,74.0615,VALID,503.577,VALID,25.1402,VALID,271,VALID,0,
2016-04-30, 09:10:04,VALID,918.163,VALID,0,VALID,74.1606,VALID,505.94,VALID,25.275,VALID,278,VALID,0,
2016-04-30, 09:11:04,VALID,918.134,VALID,0,VALID,74.1835,VALID,510.883,VALID,25.3141,VALID,278,VALID,0,
2016-04-30, 09:12:04,VALID,918.137,VALID,0,VALID,74.9534,VALID,515.932,VALID,25.2555,VALID,268,VALID,0,
2016-04-30, 09:13:04,VALID,918.142,VALID,0,VALID,74.7323,VALID,523.238,VALID,25.0993,VALID,266,VALID,0,
2016-04-30, 09:14:04,VALID,918.195,VALID,0,VALID,76.7602,VALID,533.445,VALID,24.9645,VALID,266,VALID,0,
2016-04-30, 09:15:04,VALID,918.196,VALID,0,VALID,77.2633,VALID,536.561,VALID,24.865,VALID,266,VALID,0,
2016-04-30, 09:16:04,VALID,918.197,VALID,0,VALID,78.3077,VALID,537.85,VALID,24.865,VALID,289,VALID,0,
2016-04-30, 09:17:04,VALID,918.176,VALID,0,VALID,77.5759,VALID,539.892,VALID,25.0036,VALID,317,VALID,0,
2016-04-30, 09:18:04,VALID,918.186,VALID,0,VALID,76.3409,VALID,545.264,VALID,25.2183,VALID,317,VALID,0,
2016-04-30, 09:19:04,VALID,918.191,VALID,0,VALID,75.8987,VALID,543.545,VALID,25.5308,VALID,335,VALID,0,
2016-04-30, 09:20:04,VALID,918.152,VALID,0,VALID,74.0005,VALID,538.817,VALID,25.7651,VALID,340,VALID,0,
2016-04-30, 09:21:04,VALID,918.167,VALID,0,VALID,73.848,VALID,521.734,VALID,25.9409,VALID,330,VALID,0,
2016-04-30, 09:22:04,VALID,918.133,VALID,0,VALID,72.8189,VALID,544.942,VALID,25.978,VALID,304,VALID,0,
2016-04-30, 09:23:04,VALID,918.1,VALID,0,VALID,72.2395,VALID,547.628,VALID,26.0366,VALID,288,VALID,0,
2016-04-30, 09:24:04,VALID,918.135,VALID,0,VALID,71.1112,VALID,555.041,VALID,25.9389,VALID,256,VALID,0,
2016-04-30, 09:25:04,VALID,918.109,VALID,0,VALID,71.8354,VALID,552.677,VALID,25.7632,VALID,269,VALID,0,
2016-04-30, 09:26:04,VALID,918.102,VALID,0,VALID,73.6956,VALID,546.661,VALID,25.6089,VALID,280,VALID,0,
2016-04-30, 09:27:04,VALID,918.128,VALID,0,VALID,75.5176,VALID,553.214,VALID,25.5093,VALID,281,VALID,0,
2016-04-30, 09:28:04,VALID,918.167,VALID,0,VALID,74.5113,VALID,561.058,VALID,25.5484,VALID,280,VALID,0,
2016-04-30, 09:29:04,VALID,918.169,VALID,0,VALID,75.5709,VALID,570.727,VALID,25.4507,VALID,289,VALID,0,
2016-04-30, 09:30:04,VALID,918.189,VALID,0,VALID,75.8377,VALID,577.496,VALID,25.5308,VALID,289,VALID,0,
2016-04-30, 09:31:04,VALID,918.179,VALID,0,VALID,74.2216,VALID,584.05,VALID,25.6851,VALID,263,VALID,0,
2016-04-30, 09:32:04,VALID,918.199,VALID,0,VALID,72.9256,VALID,582.868,VALID,25.6655,VALID,253,VALID,0,
2016-04-30, 09:33:04,VALID,918.208,VALID,0,VALID,76.2723,VALID,585.125,VALID,25.4898,VALID,247,VALID,0,
2016-04-30, 09:34:04,VALID,918.19,VALID,0,VALID,73.8252,VALID,593.935,VALID,25.3531,VALID,316,VALID,0,
2016-04-30, 09:35:04,VALID,918.184,VALID,0,VALID,74.9458,VALID,593.935,VALID,25.355,VALID,247,VALID,0,
2016-04-30, 09:36:04,VALID,918.214,VALID,0,VALID,78.7346,VALID,601.993,VALID,25.2555,VALID,247,VALID,0,
2016-04-30, 09:37:04,VALID,918.194,VALID,0,VALID,75.4642,VALID,616.82,VALID,25.1969,VALID,247,VALID,0,
2016-04-30, 09:38:04,VALID,918.229,VALID,0,VALID,77.4768,VALID,588.348,VALID,25.2945,VALID,248,VALID,0,
2016-04-30, 09:39:04,VALID,918.205,VALID,0,VALID,76.257,VALID,636.911,VALID,25.4683,VALID,247,VALID,0,
2016-04-30, 09:40:04,VALID,918.215,VALID,0,VALID,76.3485,VALID,640.886,VALID,25.8022,VALID,262,VALID,0,
2016-04-30, 09:41:04,VALID,918.2,VALID,0,VALID,73.0628,VALID,638.2,VALID,26.0561,VALID,50,VALID,0,
2016-04-30, 09:42:04,VALID,918.226,VALID,0,VALID,73.9166,VALID,657.003,VALID,26.1713,VALID,338,VALID,0,
2016-04-30, 09:43:04,VALID,918.214,VALID,0,VALID,71.7363,VALID,659.044,VALID,26.1948,VALID,245,VALID,0,
2016-04-30, 09:44:04,VALID,918.218,VALID,0,VALID,72.3386,VALID,658.507,VALID,26.1538,VALID,316,VALID,0.298828,
2016-04-30, 09:45:04,VALID,918.207,VALID,0,VALID,75.1135,VALID,661.623,VALID,26.0737,VALID,308,VALID,0,
2016-04-30, 09:46:04,VALID,918.191,VALID,0,VALID,73.505,VALID,341.126,VALID,26.1538,VALID,282,VALID,0,
2016-04-30, 09:47:04,VALID,918.203,VALID,0,VALID,73.3296,VALID,298.901,VALID,26.1147,VALID,281,VALID,0,
2016-04-30, 09:48:04,VALID,918.196,VALID,0,VALID,72.9332,VALID,667.424,VALID,26.1342,VALID,282,VALID,0,
2016-04-30, 09:49:04,VALID,918.212,VALID,0,VALID,73.4974,VALID,618.539,VALID,26.31,VALID,291,VALID,0,
2016-04-30, 09:50:04,VALID,918.221,VALID,0,VALID,70.8596,VALID,621.225,VALID,26.3276,VALID,311,VALID,0,
2016-04-30, 09:51:04,VALID,918.22,VALID,0,VALID,72.8417,VALID,570.727,VALID,26.31,VALID,330,VALID,0,
2016-04-30, 09:52:04,VALID,918.233,VALID,0,VALID,69.861,VALID,657.755,VALID,26.3471,VALID,277,VALID,0.0140625,
2016-04-30, 09:53:04,VALID,918.218,VALID,0,VALID,72.4225,VALID,474.89,VALID,26.269,VALID,8,VALID,0,
2016-04-30, 09:54:04,VALID,918.185,VALID,0,VALID,71.0045,VALID,191.138,VALID,26.1713,VALID,341,VALID,0,
2016-04-30, 09:55:04,VALID,918.211,VALID,0,VALID,71.8583,VALID,511.312,VALID,25.9565,VALID,297,VALID,0,
2016-04-30, 09:56:04,VALID,918.164,VALID,0,VALID,74.5418,VALID,604.464,VALID,25.6441,VALID,290,VALID,0,
2016-04-30, 09:57:04,VALID,918.11,VALID,0,VALID,75.6853,VALID,659.151,VALID,25.4898,VALID,297,VALID,0,
2016-04-30, 09:58:04,VALID,918.134,VALID,0,VALID,75.0983,VALID,652.49,VALID,25.4683,INVALID,360,VALID,0,
2016-04-30, 09:59:04,VALID,918.117,VALID,0,VALID,77.7665,VALID,661.623,VALID,25.4683,INVALID,360,VALID,0,
2016-04-30, 10:00:04,VALID,918.055,VALID,0,VALID,76.5543,VALID,671.507,VALID,25.646,VALID,20,VALID,0,
2016-04-30, 10:01:04,VALID,918.049,VALID,0,VALID,73.7032,VALID,677.416,VALID,25.8003,VALID,353,VALID,0,
2016-04-30, 10:02:04,VALID,918.067,VALID,0,VALID,73.1238,VALID,674.838,VALID,26.019,VALID,290,VALID,0,
2016-04-30, 10:03:04,VALID,918.03,VALID,0,VALID,73.4211,VALID,676.127,VALID,25.98,VALID,303,VALID,0.546094,
2016-04-30, 10:04:04,VALID,918.039,VALID,0,VALID,74.5494,VALID,667.21,VALID,25.7241,VALID,320,VALID,0,
2016-04-30, 10:05:04,VALID,918.014,VALID,0,VALID,72.2319,VALID,675.59,VALID,25.7066,VALID,282,VALID,0,
2016-04-30, 10:06:04,VALID,918.024,VALID,0,VALID,75.4185,VALID,676.772,VALID,25.7066,VALID,29,VALID,0,
2016-04-30, 10:07:04,VALID,917.981,VALID,0,VALID,74.7019,VALID,675.805,VALID,25.8804,VALID,38,VALID,0,
2016-04-30, 10:08:04,VALID,917.98,VALID,0,VALID,71.7211,VALID,687.086,VALID,26.0581,VALID,354,VALID,0.764844,
2016-04-30, 10:09:04,VALID,917.987,VALID,0,VALID,73.3906,VALID,696.971,VALID,25.98,VALID,310,VALID,0,
2016-04-30, 10:10:04,VALID,918.007,VALID,0,VALID,74.374,VALID,696.111,VALID,25.9389,VALID,38,VALID,0,
2016-04-30, 10:11:04,VALID,917.951,VALID,0,VALID,73.8633,VALID,693.64,VALID,26.0972,VALID,13,VALID,0.236328,
2016-04-30, 10:12:04,VALID,917.981,VALID,0,VALID,72.2547,VALID,693.425,VALID,26.1733,VALID,5,VALID,0,
2016-04-30, 10:13:04,VALID,917.974,VALID,0,VALID,73.2229,VALID,691.921,VALID,26.2339,VALID,2,VALID,0,
2016-04-30, 10:14:04,VALID,917.985,VALID,0,VALID,72.1709,VALID,688.161,VALID,26.273,VALID,12,VALID,0,
2016-04-30, 10:15:04,VALID,917.987,VALID,0,VALID,69.274,VALID,691.061,VALID,26.1538,VALID,9,VALID,0.199609,
2016-04-30, 10:16:04,VALID,917.998,VALID,0,VALID,68.8471,VALID,689.02,VALID,26.0757,VALID,286,VALID,0,
2016-04-30, 10:17:04,VALID,918.001,VALID,0,VALID,73.3678,VALID,679.995,VALID,26.0757,VALID,343,VALID,0.00117188,
2016-04-30, 10:18:04,VALID,918.031,VALID,0,VALID,70.4404,VALID,669.896,VALID,26.1518,VALID,306,VALID,0,
2016-04-30, 10:19:04,VALID,918.005,VALID,0,VALID,71.3628,VALID,696.004,VALID,26.1323,VALID,329,VALID,0,
2016-04-30, 10:20:04,VALID,918.016,VALID,0,VALID,71.096,VALID,700.946,VALID,26.2299,VALID,25,VALID,0,
2016-04-30, 10:21:04,VALID,917.993,VALID,0,VALID,70.5547,VALID,701.483,VALID,26.4643,INVALID,360,VALID,0,
2016-04-30, 10:22:04,VALID,918.036,VALID,0,VALID,68.9995,VALID,706.211,VALID,26.6791,VALID,305,VALID,0.01875,
2016-04-30, 10:23:04,VALID,918.052,VALID,0,VALID,69.4036,VALID,694.607,VALID,26.6596,VALID,267,VALID,0,
2016-04-30, 10:24:04,VALID,918.043,VALID,0,VALID,69.6018,VALID,682.466,VALID,26.6401,VALID,6,VALID,0.163281,
2016-04-30, 10:25:04,VALID,918.003,VALID,0,VALID,68.9081,VALID,695.896,VALID,26.6791,VALID,17,VALID,0.386719,
2016-04-30, 10:26:04,VALID,918.005,VALID,0,VALID,69.3045,VALID,705.996,VALID,26.7963,VALID,12,VALID,0,
2016-04-30, 10:27:04,VALID,917.99,VALID,0,VALID,67.6121,VALID,712.442,VALID,26.9331,VALID,352,VALID,0.117188,
2016-04-30, 10:28:04,VALID,918.001,VALID,0,VALID,68.0009,VALID,708.145,VALID,26.9917,VALID,29,VALID,0,
2016-04-30, 10:29:04,VALID,918.031,VALID,0,VALID,68.2906,VALID,720.608,VALID,27.0893,VALID,347,VALID,0,
2016-04-30, 10:30:04,VALID,917.986,VALID,0,VALID,67.2233,VALID,725.443,VALID,27.1089,VALID,7,VALID,0.433594,
2016-04-30, 10:31:04,VALID,917.986,VALID,0,VALID,67.8027,VALID,715.021,VALID,27.1675,VALID,23,VALID,1.04375,
2016-04-30, 10:32:04,VALID,918.007,VALID,0,VALID,67.7722,VALID,715.88,VALID,27.15,VALID,20,VALID,0,
2016-04-30, 10:33:04,VALID,918.028,VALID,0,VALID,69.2359,VALID,718.352,VALID,27.0328,VALID,27,VALID,0.185937,
2016-04-30, 10:34:04,VALID,918.026,VALID,0,VALID,68.4964,VALID,625.307,VALID,27.0914,VALID,31,VALID,0,
2016-04-30, 10:35:04,VALID,918.073,VALID,0,VALID,67.1852,VALID,718.996,VALID,27.1695,VALID,322,VALID,0,
2016-04-30, 10:36:04,VALID,918.043,VALID,0,VALID,67.7341,VALID,735.112,VALID,27.0328,VALID,346,VALID,0.248437,
2016-04-30, 10:37:04,VALID,918.031,VALID,0,VALID,66.7506,VALID,741.237,VALID,26.9351,VALID,6,VALID,1.41953,
2016-04-30, 10:38:04,VALID,918.046,VALID,0,VALID,70.5547,VALID,745.427,VALID,26.6421,VALID,330,VALID,0.144141,
2016-04-30, 10:39:04,VALID,918.022,VALID,0,VALID,69.1749,VALID,744.352,VALID,26.5444,VALID,354,VALID,0.572266,
2016-04-30, 10:40:04,VALID,917.986,VALID,0,VALID,70.1049,VALID,734.145,VALID,26.4468,VALID,5,VALID,0.321094,
2016-04-30, 10:41:04,VALID,918.016,VALID,0,VALID,69.5256,VALID,728.344,VALID,26.4468,VALID,15,VALID,0,
2016-04-30, 10:42:04,VALID,917.986,VALID,0,VALID,67.9856,VALID,734.468,VALID,26.4272,VALID,281,VALID,0,
2016-04-30, 10:43:04,VALID,917.954,VALID,0,VALID,68.7632,VALID,741.451,VALID,26.2514,VALID,294,VALID,0,
2016-04-30, 10:44:04,VALID,917.944,VALID,0,VALID,72.0032,VALID,750.584,VALID,26.31,VALID,326,VALID,0,
2016-04-30, 10:45:04,VALID,917.944,VALID,0,VALID,67.856,VALID,756.171,VALID,26.4272,VALID,316,VALID,0.208984,
2016-04-30, 10:46:04,VALID,917.91,VALID,0,VALID,69.6628,VALID,752.733,VALID,26.4272,VALID,13,VALID,0.0195313,
2016-04-30, 10:47:04,VALID,917.906,VALID,0,VALID,69.4874,VALID,759.502,VALID,26.5054,VALID,331,VALID,0,
2016-04-30, 10:48:04,VALID,917.895,VALID,0,VALID,71.8812,VALID,748.865,VALID,26.6791,VALID,83,VALID,0,
2016-04-30, 10:49:04,VALID,917.888,VALID,0,VALID,66.4152,VALID,754.129,VALID,26.9331,VALID,322,VALID,0.285547,
2016-04-30, 10:50:04,VALID,917.861,VALID,0,VALID,67.7874,VALID,760.791,VALID,26.7182,VALID,247,VALID,0,
2016-04-30, 10:51:04,VALID,917.846,VALID,0,VALID,71.8583,VALID,786.254,VALID,26.8179,VALID,282,VALID,0,
2016-04-30, 10:52:04,VALID,917.838,VALID,0,VALID,68.504,VALID,787.651,VALID,26.9937,VALID,337,VALID,0,
2016-04-30, 10:53:04,VALID,917.86,VALID,0,VALID,66.8345,VALID,775.08,VALID,27.187,VALID,323,VALID,0,
2016-04-30, 10:54:04,VALID,917.868,VALID,0,VALID,66.5067,VALID,752.41,VALID,27.1089,VALID,265,VALID,0,
2016-04-30, 10:55:04,VALID,917.845,VALID,0,VALID,68.2753,VALID,739.41,VALID,26.9546,VALID,318,VALID,0.276563,
2016-04-30, 10:56:04,VALID,917.886,VALID,0,VALID,70.3641,VALID,769.494,VALID,26.7593,VALID,350,VALID,0.0289063,
2016-04-30, 10:57:04,VALID,917.867,VALID,0,VALID,70.5471,VALID,775.833,VALID,26.6205,VALID,350,VALID,0.0816406,
2016-04-30, 10:58:04,VALID,917.84,VALID,0,VALID,70.5242,VALID,772.824,VALID,26.7182,VALID,23,VALID,0,
2016-04-30, 10:59:04,VALID,917.833,VALID,0,VALID,71.4695,VALID,738.013,VALID,26.8374,VALID,345,VALID,0,
2016-04-30, 11:00:04,VALID,917.895,VALID,0,VALID,70.3565,VALID,768.419,VALID,26.9721,VALID,288,VALID,0,
2016-04-30, 11:01:04,VALID,917.884,VALID,0,VALID,68.039,VALID,770.783,VALID,27.1305,VALID,303,VALID,0.00429688,
2016-04-30, 11:02:04,VALID,917.889,VALID,0,VALID,67.8255,VALID,787.436,VALID,26.8549,VALID,301,VALID,0.744141,
2016-04-30, 11:03:04,VALID,917.858,VALID,0,VALID,72.0794,VALID,507.552,VALID,26.6616,VALID,301,VALID,0,
2016-04-30, 11:04:04,VALID,917.864,VALID,0,VALID,69.0605,VALID,795.387,VALID,26.6791,VALID,298,VALID,0.00078125,
2016-04-30, 11:05:04,VALID,917.844,VALID,0,VALID,69.5103,VALID,485.849,VALID,26.5835,VALID,309,VALID,0,
2016-04-30, 11:06:04,VALID,917.855,VALID,0,VALID,71.7973,VALID,443.087,VALID,26.3276,VALID,351,VALID,0.107813,
2016-04-30, 11:07:04,VALID,917.847,VALID,0,VALID,71.7211,VALID,646.581,VALID,26.3276,VALID,360,VALID,0,
2016-04-30, 11:08:04,VALID,917.835,VALID,0,VALID,71.035,VALID,800.437,VALID,26.564,VALID,347,VALID,1.31992,
2016-04-30, 11:09:04,VALID,917.84,VALID,0,VALID,68.9386,VALID,769.064,VALID,26.7398,VALID,353,VALID,0.134375,
2016-04-30, 11:10:04,VALID,917.812,VALID,0,VALID,68.9309,VALID,770.998,VALID,26.857,VALID,14,VALID,0,
2016-04-30, 11:11:04,VALID,917.785,VALID,0,VALID,69.2206,VALID,791.626,VALID,26.8549,VALID,287,VALID,0,
2016-04-30, 11:12:04,VALID,917.802,VALID,0,VALID,68.1686,VALID,801.081,VALID,26.857,VALID,346,VALID,0.00429688,
2016-04-30, 11:13:04,VALID,917.765,VALID,0,VALID,66.8497,VALID,808.71,VALID,26.896,VALID,279,VALID,0,
2016-04-30, 11:14:04,VALID,917.745,VALID,0,VALID,68.8699,VALID,808.495,VALID,27.1305,VALID,307,VALID,0,
2016-04-30, 11:15:04,VALID,917.748,VALID,0,VALID,67.7417,VALID,811.825,VALID,27.3649,VALID,25,VALID,0,
2016-04-30, 11:16:04,VALID,917.714,VALID,0,VALID,67.0098,VALID,817.197,VALID,27.5017,VALID,34,VALID,0,
2016-04-30, 11:17:04,VALID,917.73,VALID,0,VALID,68.7785,VALID,825.9,VALID,27.6385,VALID,349,VALID,0,
2016-04-30, 11:18:04,VALID,917.707,VALID,0,VALID,66.0264,VALID,839.33,VALID,27.7557,VALID,350,VALID,0,
2016-04-30, 11:19:04,VALID,917.723,VALID,0,VALID,64.5246,VALID,843.091,VALID,27.7927,VALID,306,VALID,0,